TimeAKDT,TemperatureF,Dew PointF,Humidity,Sea Level PressureIn,VisibilityMPH,Wind Direction,Wind SpeedMPH,Gust SpeedMPH,PrecipitationIn,Events,Conditions,WindDirDegrees,DateUTC
12:25 AM,33.8,32.0,93,30.31,10.0,Calm,Calm,-,N/A,,Mostly Cloudy,0,2012-10-09 08:25:00
12:36 AM,33.8,32.0,93,30.31,10.0,WNW,3.5,-,N/A,,Mostly Cloudy,290,2012-10-09 08:36:00
12:53 AM,33.1,32.0,96,30.34,9.0,West,4.6,-,N/A,,Mostly Cloudy,270,2012-10-09 08:53:00
1:01 AM,33.8,32.0,93,30.31,3.0,West,4.6,-,N/A,,Scattered Clouds,260,2012-10-09 09:01:00
1:03 AM,33.8,32.0,93,30.31,2.5,West,4.6,-,N/A,,Mostly Cloudy,270,2012-10-09 09:03:00
1:15 AM,33.8,32.0,93,30.31,7.0,West,3.5,-,N/A,,Scattered Clouds,270,2012-10-09 09:15:00
1:40 AM,33.8,32.0,93,30.31,2.0,West,4.6,-,N/A,,Mostly Cloudy,280,2012-10-09 09:40:00
1:53 AM,34.0,32.0,92,30.34,1.2,WNW,5.8,-,N/A,,Mostly Cloudy,300,2012-10-09 09:53:00
2:03 AM,33.8,33.8,100,30.31,0.8,WNW,3.5,-,N/A,,Mist,300,2012-10-09 10:03:00
2:20 AM,33.8,33.8,100,30.32,1.2,NW,3.5,-,N/A,,Overcast,310,2012-10-09 10:20:00
2:51 AM,33.8,32.0,93,30.32,0.8,NW,3.5,-,N/A,,Mist,320,2012-10-09 10:51:00
2:53 AM,33.1,32.0,96,30.35,0.8,Calm,Calm,-,N/A,,Mist,0,2012-10-09 10:53:00
3:53 AM,30.9,30.0,96,30.35,2.0,Calm,Calm,-,N/A,,Mostly Cloudy,0,2012-10-09 11:53:00
4:00 AM,30.2,30.2,100,30.32,5.0,Calm,Calm,-,N/A,,Scattered Clouds,0,2012-10-09 12:00:00
4:06 AM,30.2,30.2,100,30.32,2.5,Calm,Calm,-,N/A,,Mostly Cloudy,0,2012-10-09 12:06:00
4:17 AM,30.2,28.4,93,30.32,3.0,Calm,Calm,-,N/A,,Mostly Cloudy,0,2012-10-09 12:17:00
4:20 AM,30.2,28.4,93,30.32,1.8,Calm,Calm,-,N/A,,Mostly Cloudy,0,2012-10-09 12:20:00
4:33 AM,30.2,28.4,93,30.33,3.0,Calm,Calm,-,N/A,,Overcast,0,2012-10-09 12:33:00
4:48 AM,30.2,30.2,100,30.33,3.0,Calm,Calm,-,N/A,,Overcast,0,2012-10-09 12:48:00
4:53 AM,30.9,30.0,96,30.36,7.0,Calm,Calm,-,N/A,,Mostly Cloudy,0,2012-10-09 12:53:00
5:53 AM,30.0,28.0,92,30.36,10.0,Calm,Calm,-,N/A,,Partly Cloudy,0,2012-10-09 13:53:00
6:08 AM,30.2,28.4,93,30.33,10.0,Calm,Calm,-,N/A,,Mostly Cloudy,0,2012-10-09 14:08:00
6:19 AM,30.2,28.4,93,30.33,10.0,Calm,Calm,-,N/A,,Scattered Clouds,0,2012-10-09 14:19:00
6:53 AM,30.0,28.0,92,30.37,9.0,Calm,Calm,-,N/A,,Clear,0,2012-10-09 14:53:00
7:53 AM,30.0,27.0,88,30.37,10.0,Calm,Calm,-,N/A,,Clear,0,2012-10-09 15:53:00
8:53 AM,28.0,25.0,88,30.38,3.0,Calm,Calm,-,N/A,,Clear,0,2012-10-09 16:53:00
9:53 AM,28.0,27.0,96,30.39,10.0,Calm,Calm,-,N/A,,Clear,0,2012-10-09 17:53:00
10:53 AM,32.0,30.0,92,30.40,10.0,Calm,Calm,-,N/A,,Clear,0,2012-10-09 18:53:00
11:53 AM,33.1,28.9,85,30.40,10.0,Calm,Calm,-,N/A,,Clear,0,2012-10-09 19:53:00
12:53 PM,37.0,28.9,73,30.41,10.0,ENE,6.9,-,N/A,,Clear,60,2012-10-09 20:53:00
1:53 PM,37.9,28.9,70,30.40,10.0,ENE,6.9,-,N/A,,Clear,60,2012-10-09 21:53:00
2:53 PM,39.9,30.0,68,30.40,10.0,NE,9.2,-,N/A,,Scattered Clouds,50,2012-10-09 22:53:00
3:03 PM,41.0,30.2,65,30.37,10.0,ENE,9.2,-,N/A,,Mostly Cloudy,60,2012-10-09 23:03:00
3:50 PM,39.2,28.4,65,30.37,10.0,ENE,8.1,-,N/A,,Overcast,60,2012-10-09 23:50:00
3:53 PM,39.9,28.0,63,30.40,10.0,NE,8.1,-,N/A,,Overcast,50,2012-10-09 23:53:00
4:53 PM,39.0,27.0,62,30.40,10.0,ENE,6.9,-,N/A,,Overcast,60,2012-10-10 00:53:00
5:53 PM,37.9,27.0,65,30.39,10.0,NE,8.1,-,N/A,,Mostly Cloudy,40,2012-10-10 01:53:00
6:53 PM,37.0,26.1,65,30.38,10.0,NE,6.9,-,N/A,,Overcast,50,2012-10-10 02:53:00
7:53 PM,36.0,26.1,67,30.38,10.0,NE,5.8,-,N/A,,Overcast,40,2012-10-10 03:53:00
8:53 PM,36.0,25.0,64,30.37,10.0,NE,12.7,20.7,N/A,,Overcast,50,2012-10-10 04:53:00
9:53 PM,35.1,24.1,64,30.36,10.0,NE,9.2,-,N/A,,Overcast,50,2012-10-10 05:53:00
10:53 PM,34.0,23.0,64,30.35,10.0,NE,9.2,19.6,N/A,,Clear,50,2012-10-10 06:53:00
11:53 PM,33.1,21.9,64,30.35,10.0,NE,10.4,19.6,N/A,,Clear,50,2012-10-10 07:53:00